Погода в Канкане

Гвинея     10°23′00″N   9°18′33″W
темп.,
°C
ветер,
м/с
пор.,
м/с
влажн.,
%
обл.,
%
осадки,
мм/ч
давл.,
гПа
погр.,
м
9 августа, вт
вт900:00+23юз2694100 0.1 1012179
03:00+22юз399592 0.3 1012323
06:00+21з2895100 0.6 1014468
09:00+22зюз3892100 0.0 1014525
12:00+27юз4575100 0.1 1013838
15:00+28з3368100 0.1 10111104
18:00+26зсз2388100 3.1 1011105
21:00+23з2291100 3.4 101319
10 августа, ср
ср1000:00+23зюз229597 3.4 101341
03:00+22сз1398100 4.6 1012117
06:00+22зюз3998100 7.9 1013402
09:00+23юз479281 0.0 1014506
12:00+26зюз358096 0.2 1013793
15:00+27з337670 1.1 1010889
18:00+25зсз2389100 7.2 101077
21:00+23зсз2395100 8.2 101282
11 августа, чт
чт1100:00+22ююз4898100 10.9 1013371
03:00+21юз31098100 2.8 1012585
06:00+21ююз399891 3.5 1013543
09:00+23юз4892100 0.1 1015589
12:00+27юз4574100 0.6 10131048
15:00+26юз4685100 3.8 1011884
18:00+24юз2692100 6.4 1011348
21:00+22юз2897100 1.3 1014304
12 августа, пт
пт1200:00+21зюз3997100 3.3 1015408
03:00+21зюз2998100 0.0 1014457
06:00+21зюз2797100 0.0 1014497
09:00+22зюз389372 0.0 1016643
12:00+26зюз357574 0.1 10151012
15:00+28зюз3570100 0.9 10121249
18:00+25зюз1390100 3.4 1012144
21:00+22зюз2895100 2.9 1014197
13 августа, сб
сб1300:00+22зюз41295100 4.9 1015504
03:00+21зюз41196100 0.8 1014699
06:00+21зюз31097100 1.4 1014607
09:00+21зюз3997100 1.6 1016603
12:00+21зюз41097100 3.5 1016570
15:00+21зюз3896100 0.4 1014578
18:00+21зюз2797100 0.4 1014406
21:00+21ююз1598100 0.3 1016288